Probability
0 0 0 0 0 0 0 0 0 0 0 0 0 0 0 0 0 0 0 0 0 0 0 1 1 0 0 0 0 0 0 0 0 0 0 0 0 0 0 0 0 0 0 0 0 0 0 0 0
0 0 0 0 0 0 0 0 0 0 0 0 0 0 0 0 0 0 0 0 0 0 1 2 2 1 0 0 0 0 0 0 0 0 0 0 0 0 0 0 0 0 0 0 0 0 0 0 0
0 0 0 0 0 0 0 0 0 0 0 0 0 0 0 0 0 0 0 0 0 0 1 3 4 4 2 0 0 0 0 0 0 0 0 0 0 0 0 0 0 0 0 0 0 0 0 0 0
0 0 0 0 0 0 0 0 0 0 0 0 0 0 0 0 0 0 0 0 0 0 1 2 5 5 3 1 0 0 0 0 0 0 0 0 0 0 0 0 0 0 0 0 0 0 0 0 0
0 0 0 0 0 0 0 0 0 0 0 0 0 0 0 0 0 0 0 1 0 0 0 1 3 5 4 2 0 0 0 0 0 0 0 0 0 0 0 0 0 0 0 0 0 0 0 0 0
0 0 0 0 0 0 0 0 0 0 0 0 0 0 0 0 0 0 0 0 0 0 0 0 1 3 4 2 0 0 0 0 0 0 0 0 0 0 0 0 0 0 0 0 0 0 0 0 0
0 0 0 0 0 0 0 0 0 0 0 0 0 0 0 0 0 0 0 0 0 0 0 0 0 1 1 1 0 0 0 0 0 0 0 0 0 0 0 0 0 0 0 0 0 0 0 0 0
0 0 0 0 0 0 0 0 0 0 0 0 0 0 0 0 0 0 0 0 0 1 0 0 0 0 0 0 0 0 0 0 0 0 0 0 0 0 0 0 0 0 0 0 0 0 0 0 0
0 0 0 0 0 0 0 0 0 0 0 0 0 0 0 0 0 0 0 0 0 0 0 0 1 0 0 0 0 0 0 0 0 0 0 0 0 0 0 0 0 0 0 0 0 0 0 0 0
0 0 0 0 0 0 0 0 0 0 0 0 0 0 0 0 0 0 0 0 0 0 0 0 0 0 0 1 1 1 1 0 0 0 0 0 0 0 0 0 0 0 0 0 0 0 0 0 0
0 0 0 0 0 0 0 0 0 0 0 0 0 0 0 0 0 0 0 0 0 0 0 0 0 0 1 2 3 2 2 1 0 0 0 0 0 0 0 0 0 0 0 0 0 0 0 0 0
0 0 0 0 0 0 0 0 0 0 0 0 0 0 0 0 0 0 0 0 0 0 0 0 0 0 2 4 5 3 1 1 0 0 0 0 0 0 0 0 0 0 0 0 0 0 0 0 0
0 0 0 0 0 0 0 0 0 0 0 0 0 0 0 0 0 0 0 0 0 0 0 0 0 0 2 4 4 2 1 1 1 1 0 0 0 0 0 0 0 0 0 0 0 0 0 0 0
0 0 0 0 0 0 0 0 0 0 0 0 0 0 0 0 0 0 0 0 0 0 0 0 0 0 1 3 3 3 3 3 2 1 0 0 0 0 0 0 0 0 0 0 0 0 0 0 0
0 0 0 0 0 0 0 0 0 0 0 0 0 0 0 0 0 0 0 0 0 0 0 0 0 0 0 1 1 2 3 4 2 1 0 0 0 0 0 0 0 0 0 0 0 0 0 0 0
0 0 0 0 0 0 0 0 0 0 0 0 0 0 0 0 0 0 0 0 0 0 0 0 0 0 0 0 0 2 3 3 2 1 0 0 0 0 0 0 0 0 0 0 0 0 0 0 0
0 0 0 0 0 0 0 0 0 0 0 0 0 0 0 0 0 0 0 0 0 0 0 0 0 0 0 1 1 2 3 3 3 2 1 1 0 0 0 0 0 0 0 0 0 0 0 0 0
0 0 0 0 0 0 0 0 0 0 0 0 0 0 0 0 0 0 0 0 0 0 0 0 0 0 1 2 2 2 2 3 3 3 1 1 0 0 0 0 0 0 0 0 0 0 0 0 0
0 0 0 0 0 0 0 0 0 0 0 0 0 0 0 0 0 0 0 0 0 0 0 0 0 0 1 3 3 3 2 3 3 3 2 1 1 0 0 0 0 0 0 0 0 0 0 0 0
0 0 0 0 0 0 0 0 0 0 0 0 0 0 0 0 0 0 0 0 0 0 0 0 0 0 1 3 4 4 3 4 4 3 3 3 2 1 1 1 1 1 1 0 0 0 0 0 0
0 0 0 0 0 0 0 0 0 0 0 0 0 0 0 0 0 0 0 0 0 0 0 0 0 0 0 2 4 4 4 4 4 3 3 3 3 2 1 0 1 1 1 1 2 1 0 0 0
0 0 0 0 0 0 0 0 0 0 0 0 0 0 0 0 0 0 0 0 0 0 0 0 0 0 0 1 4 5 4 3 2 2 3 3 3 3 2 1 0 1 1 2 2 2 1 0 0
0 0 0 0 0 0 0 0 0 0 0 0 0 0 0 0 0 0 0 0 0 0 0 0 0 0 0 0 2 4 4 3 2 2 3 4 4 4 3 2 1 1 1 1 1 2 1 1 1
0 0 0 0 0 0 0 0 0 0 0 0 0 0 0 0 0 0 0 0 0 0 0 0 0 0 0 0 0 1 3 4 4 4 4 4 5 4 4 3 2 2 2 1 1 1 1 1 1
0 0 0 0 0 0 0 0 0 0 0 0 0 0 0 0 0 0 0 0 0 0 0 0 0 0 0 0 0 0 1 3 4 4 4 3 4 4 4 3 3 2 3 3 2 2 2 2 2
0 0 0 0 0 0 0 0 0 0 0 0 0 0 0 0 0 0 0 0 0 0 0 0 0 0 0 0 0 0 0 1 2 3 3 2 2 3 3 3 3 3 3 3 3 3 3 3 3
0 0 0 0 0 0 0 0 0 0 0 0 0 0 0 0 0 0 0 0 0 0 0 0 0 0 0 0 0 0 0 0 0 1 1 1 1 2 2 2 2 2 2 2 2 2 2 2 2
0 0 0 0 0 0 0 0 0 0 0 0 0 0 0 0 0 0 0 0 0 0 0 0 0 0 0 0 0 0 0 0 0 0 0 0 0 1 2 1 1 1 1 1 1 1 1 1 1
0 0 0 0 0 0 0 0 0 0 0 0 0 0 0 0 0 0 0 0 0 0 0 0 0 0 0 0 0 0 0 0 0 0 0 0 0 1 1 0 0 0 0 0 0 0 0 0 0
0 0 0 0 0 0 0 0 0 0 0 0 0 0 0 0 0 0 0 0 0 0 0 0 0 0 0 0 0 0 0 0 0 0 0 0 0 0 0 0 0 0 0 1 1 1 0 0 0
Wind_Speed
7 3 3 3 5 5 6 3 2 2 3 1 2 3 3 2 2 3 4 9 12 15 17 17 15 16 15 15 14 13 13 14 14 13 13 13 12 12 12 11 11 11 12 13 13 13 13 12 12
6 3 3 4 6 7 6 4 5 3 1 2 2 3 3 2 2 2 4 9 13 15 16 16 15 15 16 15 14 14 14 14 13 13 13 12 12 11 12 11 11 11 12 12 12 12 12 11 11
3 3 3 4 6 8 4 3 3 1 2 2 2 2 1 1 2 1 3 11 13 14 15 15 14 15 16 15 14 14 13 13 13 13 12 12 11 11 11 11 11 11 11 11 11 11 10 10 10
3 3 3 7 10 7 5 2 2 2 3 2 2 2 2 4 3 2 5 12 14 14 14 15 14 15 16 15 14 14 14 13 13 12 12 12 11 11 11 11 11 11 11 10 10 10 9 9 8
2 3 6 9 11 6 4 3 3 4 3 3 3 1 2 4 4 4 7 11 13 13 13 15 13 14 14 14 14 14 13 13 12 12 12 11 11 10 11 10 10 10 10 10 9 9 8 8 7
2 4 8 11 11 6 4 3 4 5 4 2 3 2 3 4 4 4 7 10 11 12 12 13 12 12 12 13 12 12 12 12 11 11 11 11 10 10 10 10 10 9 9 9 9 8 7 6 6
3 4 8 10 9 8 4 3 5 5 5 3 2 3 2 2 2 4 6 8 9 11 11 11 13 13 11 11 11 10 10 11 10 10 10 9 9 9 8 8 9 9 9 8 8 7 6 6 5
2 4 7 8 9 8 2 2 2 4 4 0 2 3 1 1 3 4 6 7 8 9 10 11 12 12 13 12 11 10 10 10 10 9 9 8 8 8 7 7 7 8 8 7 7 6 6 5 4
2 6 8 7 7 5 1 3 1 2 1 1 1 2 4 4 5 5 5 6 7 8 9 10 11 11 11 11 11 11 10 9 9 9 9 9 9 9 7 8 6 6 6 6 6 6 5 4 4
3 7 8 3 3 3 3 4 2 2 4 3 1 2 2 4 5 6 6 7 9 10 10 9 10 11 11 9 9 9 9 10 10 9 10 8 7 6 6 7 6 6 6 6 6 5 6 5 4
3 5 3 2 2 4 4 4 3 5 6 5 4 3 2 4 5 6 7 8 8 9 10 10 10 11 10 8 8 6 6 7 9 10 10 8 7 6 6 5 6 7 7 6 6 6 5 4 3
3 3 3 2 2 3 5 4 5 8 6 5 5 3 5 6 7 8 8 8 8 8 10 10 11 11 11 9 8 7 6 6 7 9 11 8 6 6 6 5 6 5 5 5 5 4 5 5 5
4 3 3 4 4 4 5 6 6 8 7 5 2 2 5 7 8 8 7 6 7 8 9 10 10 11 10 10 8 8 8 8 8 8 9 10 8 7 7 6 6 6 5 6 6 5 6 6 6
3 4 5 4 3 2 5 7 6 6 4 4 3 4 4 6 7 6 7 7 8 8 8 9 10 11 11 10 9 8 8 8 8 8 10 12 9 8 8 7 7 7 6 6 5 6 6 5 5
2 3 4 3 4 3 4 7 6 5 3 5 5 5 4 4 5 6 7 7 8 8 8 9 10 11 12 12 11 8 8 8 8 8 10 11 10 10 8 7 7 7 6 6 5 6 5 5 6
2 3 5 2 2 3 5 11 5 3 4 6 5 5 4 4 5 5 6 6 7 7 8 9 7 10 12 11 11 8 8 8 8 8 9 12 12 11 9 8 8 7 6 6 6 6 6 6 6
2 5 6 4 1 2 6 9 5 4 4 5 5 5 4 5 6 6 6 6 6 7 7 8 8 9 10 10 10 9 8 9 8 8 8 10 12 12 10 8 8 8 7 7 6 6 6 6 6
4 5 6 7 2 4 7 9 7 5 4 4 4 4 4 5 6 6 6 6 6 5 6 7 8 9 9 8 8 7 8 8 8 8 9 11 10 12 11 9 9 8 7 7 7 8 7 6 6
5 6 8 6 4 6 9 10 7 6 4 4 4 3 4 5 6 6 6 5 5 5 5 6 6 7 6 6 6 7 9 9 9 9 10 12 12 12 12 9 10 9 8 9 9 8 8 7 5
6 7 7 5 4 6 9 10 7 5 4 4 4 4 5 6 6 6 6 6 5 5 6 5 6 6 6 6 6 6 7 8 9 8 10 12 12 12 10 12 10 10 9 10 10 8 6 6 6
7 7 7 7 7 5 7 8 6 3 2 3 3 4 4 5 6 6 6 6 5 5 5 5 5 5 6 6 5 4 5 5 6 9 9 11 12 12 12 12 11 10 10 9 10 10 10 7 7
7 6 7 7 6 4 4 8 5 4 3 3 3 4 5 5 5 6 6 6 6 6 5 5 5 4 4 5 5 7 6 7 8 7 7 8 10 11 11 11 11 10 9 10 10 10 9 10 8
4 4 6 7 7 7 6 8 5 3 6 4 4 4 5 5 6 6 6 6 6 6 5 4 4 4 4 4 5 6 7 7 6 6 6 6 7 9 10 11 10 10 9 10 10 10 10 9 9
3 3 3 3 4 8 8 9 7 4 6 4 4 4 5 6 6 7 7 7 6 6 5 5 5 5 5 4 3 4 6 6 6 6 5 5 5 6 9 9 8 9 8 9 10 10 11 10 10
1 1 2 2 4 6 4 7 7 1 2 4 4 5 6 6 6 7 7 7 7 7 7 6 6 5 5 4 3 3 4 5 5 5 5 5 4 5 6 7 7 7 8 8 8 9 10 10 11
4 4 3 4 5 4 4 8 4 1 3 3 3 5 6 6 6 6 7 7 7 8 7 7 6 6 6 4 4 3 4 3 3 4 4 4 4 5 5 7 7 7 7 7 7 7 9 8 10
3 4 3 4 4 5 5 5 6 2 4 4 4 5 6 6 6 7 7 8 8 8 8 7 7 6 6 5 5 4 4 4 3 3 4 3 3 3 5 6 6 7 7 7 7 6 8 8 9
4 2 2 4 4 7 7 9 6 3 4 4 5 5 6 6 6 7 7 7 8 8 8 7 7 7 6 6 5 4 4 4 4 3 4 4 4 4 3 4 5 6 6 7 7 6 6 7 8
3 3 3 3 4 5 8 7 2 4 5 6 6 6 7 8 7 7 7 8 8 8 7 7 7 7 6 6 5 5 4 4 4 3 4 4 4 4 4 4 4 4 4 5 6 6 6 8 7
3 3 3 5 6 6 8 8 2 5 6 7 7 7 8 8 8 8 8 8 8 8 8 7 7 7 7 7 6 5 5 5 5 5 5 4 4 4 4 4 3 4 4 4 5 6 6 7 7
Wind_Direction
325 303 251 237 231 230 236 213 216 183 183 150 169 206 225 233 285 19 72 154 152 154 156 157 158 156 154 151 150 150 149 147 146 144 139 135 133 130 128 124 120 117 113 109 106 103 100 95 93
319 283 237 235 242 232 222 208 212 208 118 123 173 203 215 210 7 52 124 155 158 156 158 161 155 156 155 154 153 154 152 148 147 146 142 139 137 135 133 130 126 123 118 114 111 109 105 102 98
303 265 248 226 235 241 227 186 198 136 157 194 177 215 279 30 65 102 132 159 159 159 160 154 155 157 157 157 157 156 154 152 150 148 146 144 142 138 136 134 130 127 124 120 117 114 110 106 103
274 213 223 234 232 239 253 204 180 168 164 190 207 170 123 42 19 55 143 161 160 160 161 154 158 159 160 161 161 160 159 157 156 154 152 148 147 143 138 136 134 132 129 126 123 119 116 112 108
250 231 223 231 238 236 243 269 221 220 200 190 229 223 123 54 35 103 150 163 162 161 162 160 161 161 162 164 165 165 163 162 160 158 156 153 152 150 147 142 140 139 136 131 128 124 121 117 115
210 221 231 235 233 232 233 245 226 233 225 202 224 227 117 63 60 120 152 165 165 164 164 163 161 163 164 167 167 168 167 166 164 162 159 158 156 154 154 152 148 146 142 138 135 132 130 124 120
227 223 240 243 241 236 237 225 223 230 225 217 235 223 139 80 69 136 155 162 167 168 169 170 172 172 169 168 169 170 169 168 166 164 162 159 157 156 156 158 158 156 151 147 145 141 139 136 130
271 228 231 234 239 240 240 214 238 244 242 328 222 228 143 104 111 141 151 162 169 175 178 178 179 181 181 179 173 172 171 169 167 165 161 156 155 157 155 164 162 165 162 158 156 153 152 148 143
235 226 230 228 237 244 228 228 265 304 209 188 252 357 26 109 131 142 151 170 178 184 187 187 186 187 187 186 178 179 176 175 172 170 162 169 181 180 176 179 167 170 169 170 170 168 162 159 159
214 229 232 238 261 278 254 250 244 224 226 224 241 355 59 136 159 171 181 187 192 194 194 194 194 191 191 189 184 190 191 189 193 189 184 190 192 190 191 169 175 177 174 179 182 177 174 201 196
212 236 232 239 292 299 278 273 256 240 235 242 253 246 174 182 192 200 205 205 205 203 200 201 201 196 195 192 192 192 193 194 198 197 195 195 195 192 197 187 185 192 193 198 190 197 208 217 223
215 238 265 283 312 287 277 278 262 243 263 305 279 232 190 202 208 214 215 216 215 213 209 206 206 203 202 199 198 197 196 198 200 199 199 198 199 201 200 202 201 201 204 207 210 213 217 224 228
225 245 277 294 297 289 277 262 267 260 283 313 313 210 209 218 223 225 226 225 223 223 219 213 209 207 204 205 205 204 204 204 203 202 203 206 206 207 207 208 208 210 210 212 216 220 222 227 233
257 258 273 282 277 275 273 270 254 270 288 290 282 258 245 240 240 236 232 231 230 230 228 222 216 212 208 208 209 209 209 209 209 207 208 209 212 212 210 211 212 214 214 218 221 226 228 231 236
267 254 249 252 261 256 268 252 239 276 291 280 276 273 271 266 261 253 247 242 238 236 234 230 224 218 213 212 214 214 213 211 211 211 212 212 214 215 213 214 215 216 216 216 221 228 231 238 239
221 230 243 233 262 253 240 250 251 282 275 273 277 282 284 285 287 284 281 271 258 249 241 235 228 225 221 217 215 215 214 214 216 215 213 214 215 216 215 217 218 215 212 213 216 219 225 232 240
196 239 249 260 262 279 243 262 286 306 274 270 276 284 294 302 305 303 302 294 278 259 248 241 231 228 227 224 218 216 214 215 218 216 215 215 215 215 215 218 220 215 213 216 218 221 227 235 240
227 241 250 254 293 285 262 270 295 307 286 277 283 295 301 303 302 306 307 304 300 288 268 250 241 233 230 226 221 216 216 217 217 217 218 215 215 215 216 218 218 214 215 217 218 222 227 236 243
249 248 257 268 293 279 264 274 284 300 297 289 294 302 301 300 307 318 320 316 312 308 296 275 252 239 230 223 218 218 217 215 215 216 219 217 216 214 215 216 216 212 216 218 218 220 225 229 230
241 250 264 281 299 274 269 272 276 286 292 288 292 304 315 320 329 336 335 333 324 313 303 292 277 261 241 234 229 227 226 221 218 216 217 218 218 215 214 216 214 211 214 217 217 214 219 222 210
239 246 261 280 305 269 274 261 251 254 278 308 314 313 327 330 331 336 344 343 337 328 312 304 291 279 262 248 241 240 235 234 222 219 218 217 217 214 213 216 217 215 214 217 216 213 216 219 214
246 256 264 270 270 261 258 266 248 248 265 282 305 317 317 325 328 330 336 338 337 331 328 320 315 305 294 271 246 233 232 234 236 229 223 219 214 215 215 216 218 219 218 219 217 215 217 219 220
272 296 270 261 253 257 244 256 258 243 255 262 288 311 320 328 329 328 330 334 340 346 345 340 337 337 323 300 271 249 243 243 247 241 230 220 216 217 217 217 216 219 220 220 218 215 216 219 223
290 303 275 251 242 244 239 243 262 232 253 276 299 317 325 331 333 334 340 351 352 355 353 350 350 347 344 333 310 279 264 259 257 255 245 227 220 219 219 218 218 220 222 221 219 217 218 221 225
285 277 252 229 228 244 235 235 250 273 295 299 315 329 333 338 342 345 349 350 353 354 353 352 351 347 345 342 335 317 290 272 263 261 257 247 231 225 221 218 221 222 224 224 223 221 220 221 225
229 220 235 261 257 272 243 238 244 26 326 318 329 334 344 350 352 351 351 350 352 351 350 351 350 346 346 345 341 336 324 293 283 281 278 267 257 247 237 222 223 226 226 226 225 226 226 225 225
229 222 242 271 285 269 248 260 275 279 310 324 337 345 350 349 348 347 348 349 348 349 347 346 344 345 345 344 344 345 343 328 306 300 290 282 282 279 262 239 225 223 224 226 225 227 228 230 230
246 230 212 221 249 260 263 257 255 290 295 308 320 329 334 337 340 341 343 343 345 346 345 346 343 341 339 341 342 344 341 333 322 316 306 294 288 290 293 266 242 232 227 224 227 231 232 232 233
212 199 224 233 247 258 267 263 283 274 287 300 310 320 325 332 334 335 337 338 342 344 345 343 342 341 339 336 333 335 334 334 333 318 314 311 304 298 289 283 260 249 244 237 234 235 233 234 236
241 229 225 240 244 249 266 271 287 297 304 309 315 318 322 326 329 331 332 333 335 338 340 339 337 335 333 330 328 326 327 331 331 327 319 316 313 305 291 283 277 263 255 248 244 245 241 239 240